EW9666 Weather Reports


Display with metric or nautical units.
time (UTC)temp
F
wind
direction
speed
MPH
gust
MPH
rain 1hr
in
rain 24hr
in
rain mn
in
humidity
%
barometer
mb
20260508134507 49 256 19.0 30.0 0.00 0.02 0.00 73 1002.4
20260508133143 49 253 11.0 22.0 0.00 0.02 0.00 75 1002.3
20260508131503 48 246 9.0 19.0 0.00 0.02 0.00 76 1002.3
20260508130002 48 278 10.0 19.0 0.00 0.02 0.00 77 1002.2
20260508124559 48 249 9.0 22.0 0.00 0.02 0.00 78 1002.1
20260508123115 48 280 9.0 22.0 0.00 0.02 0.00 78 1001.9
20260508121606 47 242 8.0 28.0 0.00 0.02 0.00 79 1001.5
20260508120107 47 238 12.0 23.0 0.00 0.02 0.00 81 1001.4
20260508114559 47 287 9.0 22.0 0.00 0.02 0.00 82 1001.3
20260508113056 46 254 9.0 22.0 0.00 0.02 0.00 84 1001.1
20260508111550 46 244 7.0 25.0 0.00 0.02 0.00 85 1001.0
20260508110044 46 257 9.0 21.0 0.00 0.02 0.00 86 1000.9
20260508104545 46 263 10.0 23.0 0.00 0.02 0.00 87 1000.7
20260508103054 46 267 7.0 23.0 0.00 0.02 0.00 88 1000.6
20260508101544 46 241 12.0 22.0 0.00 0.02 0.00 88 1000.4
20260508100036 46 272 7.0 18.0 0.00 0.02 0.00 89 1000.1
20260508094535 46 264 8.0 21.0 0.00 0.02 0.00 90 999.8
20260508093039 46 235 7.0 18.0 0.00 0.02 0.00 91 999.6
20260508091535 46 253 5.0 23.0 0.00 0.02 0.00 89 999.5
20260508090030 47 309 10.0 26.0 0.00 0.02 0.00 85 999.5
20260508084528 47 254 10.0 31.0 0.00 0.02 0.00 83 999.3
20260508083032 47 223 11.0 24.0 0.00 0.02 0.00 82 999.4
20260508081526 47 264 13.0 25.0 0.00 0.02 0.00 81 999.4
20260508080025 47 282 11.0 18.0 0.00 0.02 0.00 82 999.4
20260508074525 47 253 8.0 18.0 0.00 0.04 0.00 84 999.3
20260508073026 47 266 12.0 28.0 0.00 0.04 0.00 86 999.5
20260508071520 47 257 11.0 23.0 0.00 0.04 0.00 86 999.6
20260508070020 47 236 12.0 21.0 0.00 0.04 0.00 87 999.8
20260508064523 47 250 13.0 22.0 0.00 0.14 0.00 88 1000.0
20260508063016 48 249 17.0 29.0 0.00 0.14 0.00 85 999.9
20260508061513 49 254 17.0 24.0 0.00 0.14 0.00 81 999.9
20260508060011 49 246 7.0 19.0 0.00 0.14 0.00 82 1000.0
20260508054509 49 254 13.0 23.0 0.00 0.20 0.00 84 999.9
20260508053007 49 265 5.0 22.0 0.00 0.20 0.00 86 999.9
20260508051504 48 276 10.0 0.0 0.00 0.00 0.00 88 999.9
20260508050002 48 222 9.0 20.0 0.00 0.20 0.00 90 999.7
20260508044600 48 233 11.0 24.0 0.00 1.14 0.00 90 999.5
20260508043159 49 268 12.0 24.0 0.00 1.14 0.00 91 999.6
20260508041600 49 247 13.0 20.0 0.00 1.14 0.00 92 999.5
20260508040052 49 256 11.0 21.0 0.00 1.14 0.00 93 999.4
20260508034549 49 251 11.0 22.0 0.00 1.24 0.00 93 999.4
20260508033047 50 277 11.0 22.0 0.00 1.24 0.00 93 999.3
20260508031543 50 228 11.0 21.0 0.01 1.24 0.00 93 999.2
20260508030043 50 242 11.0 21.0 0.01 1.24 0.00 93 999.2
20260508024537 50 249 13.0 22.0 0.02 1.24 1.24 93 999.0
20260508023036 50 262 13.0 22.0 0.02 1.24 1.24 93 998.8
20260508021540 50 254 13.0 20.0 0.02 1.23 1.23 93 998.9
20260508020043 51 266 13.0 26.0 0.02 1.23 1.23 93 999.0
20260508014530 51 262 9.0 22.0 0.01 1.22 1.22 93 999.2
20260508013027 51 243 9.0 28.0 0.01 1.22 1.22 93 999.2
20260508011525 51 289 10.0 19.0 0.00 1.21 1.21 93 999.5
20260508010024 52 225 7.0 18.0 0.00 1.21 1.21 92 999.6
20260508004522 52 210 8.0 18.0 0.00 1.21 1.21 90 999.3
20260508003018 53 309 8.0 22.0 0.00 1.21 1.21 88 999.7
20260508001534 54 239 13.0 22.0 0.00 1.21 1.21 83 999.5
20260508000013 54 238 9.0 19.0 0.00 1.21 1.21 83 999.3
20260507234515 54 290 9.0 20.0 0.00 1.21 1.21 83 999.2
20260507233014 54 222 13.0 25.0 0.00 1.21 1.21 83 999.4
20260507231507 55 259 8.0 19.0 0.00 1.21 1.21 85 999.4
20260507230007 54 259 8.0 18.0 0.00 1.21 1.21 86 999.6
20260507224504 55 238 11.0 24.0 0.00 1.21 1.21 85 1000.0
20260507223100 55 261 12.0 21.0 0.00 1.21 1.21 84 999.7
20260507221558 55 212 10.0 18.0 0.00 1.21 1.21 84 999.5
20260507220055 56 347 9.0 18.0 0.00 1.21 1.21 81 999.3
20260507214559 56 237 9.0 18.0 0.00 1.21 1.21 79 999.0
20260507213053 56 297 4.0 12.0 0.00 1.21 1.21 79 999.0
20260507211551 56 265 7.0 18.0 0.00 1.21 1.21 78 999.3
20260507210052 57 282 9.0 23.0 0.00 1.21 1.21 76 999.1
20260507204553 57 265 7.0 22.0 0.00 1.21 1.21 76 999.3
20260507203049 58 233 9.0 19.0 0.00 1.21 1.21 75 999.2
20260507201552 58 250 7.0 16.0 0.00 1.21 1.21 74 998.9
20260507200043 58 244 10.0 22.0 0.00 1.21 1.21 74 997.9
20260507194541 58 249 9.0 20.0 0.00 1.21 1.21 74 997.3
20260507193039 58 237 9.0 17.0 0.00 1.21 1.21 75 997.6
20260507191538 58 269 9.0 18.0 0.00 1.21 1.21 75 997.6
20260507190037 58 243 8.0 17.0 0.00 1.21 1.21 75 998.7
20260507184536 59 234 5.0 18.0 0.00 1.21 1.21 76 999.2
20260507183037 59 271 7.0 20.0 0.00 1.21 1.21 76 999.2
20260507181534 59 276 8.0 18.0 0.00 1.21 1.21 76 1000.2
20260507180037 58 241 10.0 17.0 0.00 1.21 1.21 78 1000.8
20260507174541 58 294 6.0 17.0 0.00 1.21 1.21 78 1000.0
20260507173035 58 255 6.0 13.0 0.00 1.21 1.21 80 999.0
20260507171536 58 256 3.0 7.0 0.00 1.21 1.21 80 998.7
20260507170041 58 239 6.0 17.0 0.00 1.21 1.21 79 999.4
20260507164530 58 271 9.0 20.0 0.00 1.21 1.21 78 1000.4
20260507163025 58 261 9.0 24.0 0.00 1.21 1.21 79 1000.7
20260507161521 59 247 10.0 17.0 0.00 1.21 1.21 80 999.5
20260507160019 59 260 9.0 18.0 0.00 1.21 1.21 82 998.7
20260507154517 59 256 5.0 10.0 0.00 1.21 1.21 85 999.0
20260507153019 60 240 7.0 16.0 0.00 1.21 1.21 84 999.5
20260507151515 59 273 7.0 17.0 0.00 1.21 1.21 84 999.1
20260507150015 60 252 10.0 18.0 0.00 1.21 1.21 85 999.5
20260507144513 61 237 6.0 16.0 0.00 1.21 1.21 88 999.9
20260507143012 61 261 1.0 9.0 0.00 1.21 1.21 88 998.6
20260507141510 61 240 1.0 6.0 0.00 1.21 1.21 88 998.7
20260507140009 61 236 5.0 11.0 0.00 1.21 1.21 88 999.0